Location: Florentin
(45.5002°N, 1.9978°E)
Time: 12:40:30
(UTC+00:00)

Daily predictions for brighter satellites

Satellite Brightness Start Highest point End
(mag) Time Altitude Azimuth Time Altitude Azimuth Time Altitude Azimuth
Cosmos 1656 4.1 19:22:49 10° NNW 19:28:17 67° WSW 19:33:47 10° SSE
Cosmos 614 Rocket 4.0 19:24:13 10° SSW 19:29:23 78° ESE 19:34:37 10° NNE
Intercosmos 25 3.7 19:26:39 10° N 19:30:19 38° ENE 19:33:20 10° SE
Cosmos 2228 Rocket 3.3 19:27:00 10° NNW 19:31:26 75° W 19:35:48 10° S
Cosmos 1833 Rocket 2.7 19:29:45 10° SSW 19:35:21 77° ESE 19:40:59 10° NNE
NOSS 3-2 (A) 3.9 19:30:29 10° S 19:35:29 34° ESE 19:41:03 10° NE
Cosmos 1184 Rocket 4.5 19:34:40 10° SE 19:36:51 17° E 19:39:02 10° NE
Cosmos 1862 3.3 19:33:02 10° S 19:37:05 86° E 19:41:10 10° N
SJ-6B 2.8 19:33:13 10° SSE 19:37:15 82° ENE 19:41:14 10° N
Meteor 1-4 Rocket 3.5 19:35:04 10° NNE 19:38:05 27° ENE 19:41:05 10° SE
Sich 1 3.2 19:34:06 10° S 19:38:25 55° E 19:42:46 10° NNE
Cosmos 1697 Rocket 2.7 19:32:52 10° NNW 19:38:32 84° ENE 19:44:08 10° SSE
H-2A R/B 3.2 19:36:36 10° S 19:41:28 44° W 19:46:14 10° NNW
USA 267 4.1 19:36:14 10° ENE 19:41:35 26° SE 19:46:55 10° S
NOSS 3-2 (C) 4.3 19:40:34 10° SSE 19:45:01 24° ESE 19:49:52 10° ENE
Cosmos 389 Rocket 2.9 19:43:28 10° NNW 19:46:55 63° W 19:50:21 10° S
Cosmos 1812 2.7 19:44:45 10° N 19:48:37 85° W 19:52:27 10° S
Cosmos 1934 Rocket 4.4 19:43:46 10° SSE 19:49:45 45° E 19:55:46 10° NNE
Resurs 01 Rocket 2.2 19:48:08 10° SE 19:52:16 41° ENE 19:56:27 10° N
Cosmos 676 Rocket 4.2 19:52:16 10° S 19:57:21 49° ESE 20:02:31 10° NNE
MONITOR-E 3.7 19:57:31 10° S 19:59:51 67° W 20:02:12 10° NNW
Meteor 1-27 Rocket 3.9 19:54:33 10° N 20:00:32 83° E 20:06:29 10° SSE
GP-B 4.1 19:57:50 10° NNE 20:01:43 29° E 20:04:53 14° SE
Cosmos 1441 Rocket 3.9 19:58:41 10° SSW 20:02:23 56° WNW 20:06:05 10° N
Cosmos 192 4.5 20:01:31 10° NNW 20:06:23 59° ENE 20:10:31 14° SE
SPOT 3 Rocket 3.6 20:02:50 10° SSE 20:08:03 85° ENE 20:13:16 10° NNW
DMSP B5D2-2 4.3 20:04:35 10° N 20:09:51 77° WNW 20:15:04 10° SSW
BREEZE-M DEB (TANK) 3.3 20:06:45 10° W 20:09:54 36° N 20:11:46 10° ENE
Cosmos 1867 3.5 20:05:03 10° SSW 20:10:28 85° ESE 20:15:58 10° NE
Cosmos 1821 Rocket 4.2 20:06:01 10° SSW 20:12:11 77° W 20:18:28 10° N
Cosmos 1666 Rocket 3.5 20:08:57 10° S 20:13:16 86° E 20:17:38 10° N
SL-4 R/B 2.9 20:10:54 10° W 20:14:49 47° NNW 20:18:27 10° ENE
ATLAS 3B R/B 4.0 20:14:38 15° ESE 20:15:30 15° ESE 20:19:08 10° ENE
USA 234 4.2 20:11:31 10° E 20:17:33 42° NNE 20:23:37 10° NW
IGS 5A 4.3 20:15:47 18° ESE 20:18:11 34° ENE 20:21:57 10° N
Resurs 1-3 4.1 20:21:47 10° S 20:26:05 59° W 20:30:26 10° NNW
MetOp-B 4.2 20:22:39 16° SSE 20:26:51 63° ENE 20:32:10 10° N
Cosmos 1954 Rocket 4.0 20:21:38 10° SSW 20:26:57 85° ESE 20:32:19 10° NNE
Spot 2 Rocket 3.9 20:25:35 20° SE 20:28:55 48° ENE 20:33:49 10° N
SL-16 R/B 2.9 20:25:34 10° NNW 20:30:54 39° NE 20:34:14 21° ESE
CZ-2C R/B 3.7 20:27:10 10° N 20:32:07 47° WNW 20:37:06 10° SW
USA 238 DEB 3.6 20:27:43 10° SSW 20:34:21 82° SE 20:41:15 10° NE
USA 238 3.6 20:27:52 10° SSW 20:34:28 81° SE 20:41:22 10° NE
Okean 1-7 4.1 20:30:51 10° NNE 20:34:36 28° ENE 20:36:00 23° ESE
Cosmos 1703 Rocket 4.4 20:31:48 10° N 20:35:44 32° ENE 20:37:16 25° ESE
Cosmos 2123 Rocket 4.1 20:30:27 10° N 20:36:41 81° W 20:42:57 10° S
ATLAS 5 CENTAUR R/B 3.9 20:35:17 10° N 20:36:58 14° NE 20:39:29 10° E
Cosmos 1535 Rocket 4.5 20:31:03 10° S 20:37:12 85° W 20:43:20 10° N
Cosmos 2082 Rocket 2.8 20:33:58 10° SW 20:39:34 59° WNW 20:45:12 10° NNE
Meteor 1-18 Rocket 4.4 20:35:24 10° N 20:40:53 54° ENE 20:44:01 25° SE
Meteor 1-25 Rocket 4.1 20:35:30 10° S 20:41:02 72° E 20:46:39 10° NNE
Terra 3.3 20:40:06 19° E 20:41:49 23° ENE 20:45:31 10° NNE
Cosmos 1633 Rocket 3.7 20:37:37 10° SSW 20:41:59 58° WNW 20:46:21 10° N
Lacrosse 5 2.0 20:37:45 10° NW 20:42:49 69° NE 20:45:36 27° ESE
CENTAUR R/B 2.5 20:39:12 10° SSW 20:44:55 60° ESE 20:51:42 10° NE
Cosmos 1238 Rocket 1.9 20:44:11 43° SSE 20:44:57 66° E 20:47:55 10° NNE
USA 276 3.0 20:42:42 10° WNW 20:45:46 43° NNE 20:47:07 26° ENE
Cosmos 1605 Rocket 3.9 20:40:03 10° S 20:46:09 77° E 20:52:14 10° N
Cosmos 2322 Rocket 2.8 20:44:15 10° NNW 20:49:43 44° ENE 20:52:29 26° ESE
X-37B 0.4 20:46:39 10° W 20:49:50 76° S 20:50:24 54° ESE
Cosmos 1763 Rocket 3.7 20:44:34 10° NNW 20:49:52 61° ENE 20:52:27 30° SE
Cosmos 921 Rocket 3.2 20:51:28 10° NNW 20:55:38 65° WSW 20:57:43 28° S
OBJECT-B 3.5 20:54:38 10° SW 20:56:55 17° W 20:59:13 10° NW
Cosmos 2084 Rocket 3.3 20:52:51 10° SSW 20:56:58 59° SE 21:01:11 10° NE
H-2A R/B 3.5 20:53:36 10° NNE 20:57:44 80° WNW 21:01:16 14° SSW
Cosmos 1500 4.3 20:59:53 27° ENE 20:59:53 27° ENE 21:02:36 10° NNE
Cosmos 2242 Rocket 3.5 20:55:32 10° N 21:00:00 80° E 21:01:46 36° SSE
Cosmos 2360 Rocket 3.3 20:55:09 10° N 21:00:12 31° NE 21:02:39 23° E
Cosmos 44 3.7 20:59:49 10° NNW 21:04:39 54° NE 21:06:35 34° ESE
Cosmos 1602 3.7 21:03:29 30° S 21:05:19 86° W 21:09:18 10° N
Cosmos 1980 Rocket 3.4 21:03:51 10° NW 21:08:58 35° WSW 21:13:03 15° SSW
Cosmos 1470 Rocket 4.3 21:05:31 10° SSW 21:09:49 52° WNW 21:14:06 10° N
Cosmos 1459 Rocket 4.4 21:08:09 32° SE 21:10:30 45° E 21:16:31 10° NNE
SAR-Lupe-2 4.3 21:07:23 10° NNE 21:10:12 37° ENE 21:10:12 37° ENE
Cosmos 405 Rocket 3.5 21:17:27 21° SW 21:19:36 48° WNW 21:23:15 10° N
SL-27 R/B 2.4 21:20:03 66° NNE 21:20:03 66° NNE 21:22:58 10° NNE
SPOT 5 2.6 21:19:54 53° SE 21:20:42 65° ENE 21:25:04 10° N
Cosmos 1437 Rocket 2.7 21:21:07 10° NNW 21:24:54 73° W 21:25:21 63° SSW
USA 267 3.2 21:18:34 10° NE 21:25:09 88° SE 21:31:43 10° SW
NOSS 3-2 (A) 4.3 21:20:26 10° WSW 21:26:02 50° NW 21:32:29 10° NNE
Lacrosse 4 Rocket 3.8 21:29:56 12° ENE 21:29:56 12° ENE 21:30:20 10° ENE
SPOT 1/Viking Rocket 3.8 21:25:42 32° S 21:28:03 63° WSW 21:33:16 10° NNW
Cosmos 540 Rocket 3.5 21:23:21 10° NNW 21:28:33 67° ENE 21:29:45 50° SE
Resurs 01 Rocket 3.8 21:25:35 10° SW 21:28:56 21° W 21:32:19 10° NW
Cosmos 1515 3.9 21:27:46 10° NNW 21:31:34 62° W 21:32:00 56° SW
NOSS 3-2 (C) 3.8 21:29:30 10° SW 21:35:12 65° NW 21:41:47 10° NE
Cosmos 1850 Rocket 4.4 21:30:48 10° SSW 21:36:03 62° WNW 21:41:18 10° NNE
ERS-1 Rocket 3.0 21:36:12 47° S 21:37:38 75° WSW 21:42:41 10° NNW
Cosmos 2333 Rocket 3.6 21:32:53 10° N 21:37:46 27° NE 21:39:44 23° E
Cosmos 2061 Rocket 4.2 21:37:27 44° SE 21:38:42 50° E 21:44:39 10° NNE
Meteor 1-11 Rocket 3.9 21:42:34 47° ESE 21:43:10 49° E 21:48:42 10° NNE
Meteor 1-5 Rocket 4.2 21:42:12 46° S 21:44:02 75° E 21:49:58 10° NNE
CARTOSAT-1 3.9 21:44:02 52° SW 21:44:43 59° W 21:49:00 10° NNW
Cosmos 841 Rocket 3.4 21:41:20 10° NNW 21:46:35 84° WSW 21:47:34 60° S
Cosmos 1802 Rocket 4.0 21:45:23 46° SSE 21:47:19 70° E 21:53:38 10° NNE
Okean 3 3.4 21:48:50 10° N 21:52:58 77° NE 21:52:58 77° NE
SL-4 R/B 3.4 21:51:31 10° WNW 21:54:58 31° N 21:55:57 26° NNE
USA 234 3.2 21:58:07 48° SE 22:00:13 89° SW 22:06:47 10° NW
Cosmos 1869 Rocket 4.1 22:01:00 47° WSW 22:01:47 54° WNW 22:06:11 10° N
Cosmos 1816 Rocket 4.5 21:55:58 10° N 22:02:11 64° E 22:03:15 55° ESE
Iridium 4 Rocket 3.1 22:05:13 71° WNW 22:05:13 71° WNW 22:09:12 10° N
Meteor 2-4 Rocket 4.1 21:59:32 10° NNW 22:05:01 55° W 22:06:23 44° SW
ATLAS 3B R/B 2.4 22:01:44 31° SSW 22:05:07 81° SE 22:11:48 10° NE
Cosmos 1814 Rocket 4.1 22:05:09 10° NNW 22:10:20 65° WSW 22:10:48 62° SW
Cosmos 1536 3.8 22:12:11 41° NNE 22:12:11 41° NNE 22:14:52 10° NNE
Meteor 1-23 Rocket 4.3 22:07:36 10° N 22:13:24 62° ENE 22:13:53 59° E
Meteor 1-13 Rocket 4.1 22:08:32 10° NNW 22:14:03 75° W 22:14:45 66° SSW
SL-16 R/B 3.2 22:09:50 10° NW 22:14:57 35° WSW 22:16:06 32° SW
Cosmos 2219 Rocket 2.8 22:10:33 10° NNW 22:15:59 43° ENE 22:16:47 41° ENE
Cosmos 1674 Rocket 4.3 22:14:45 10° N 22:18:08 45° NE 22:18:08 45° NE
Terra 2.4 22:19:00 46° WSW 22:19:17 46° W 22:23:53 10° NNW
Cosmos 2322 3.7 22:17:32 10° NNW 22:23:12 68° ENE 22:23:34 66° E
Cosmos 1833 4.1 22:24:31 74° SSW 22:25:04 88° WNW 22:30:46 10° NNE
Lacrosse 5 3.4 22:21:19 10° WNW 22:24:47 24° WSW 22:24:47 24° WSW
Tsikada Rocket 3.8 22:21:04 10° N 22:27:27 86° E 22:28:15 70° SSE
MOS 1-B Rocket 3.7 22:24:09 10° NNE 22:29:46 75° ESE 22:29:54 75° ESE
Cosmos 1486 Rocket 4.3 22:33:50 58° NE 22:33:50 58° NE 22:38:11 10° NNE
Geosat 4.3 22:33:13 58° ENE 22:33:13 58° ENE 22:38:10 10° NNW
Cosmos 2322 Rocket 3.4 22:28:39 10° NW 22:33:35 31° WSW 22:34:18 30° WSW
Cosmos 1733 Rocket 3.6 22:34:36 56° N 22:34:36 56° N 22:38:10 10° N
ALOS 2 4.0 22:35:05 30° NE 22:35:05 30° NE 22:38:12 10° N
CENTAUR R/B 4.0 22:30:17 10° W 22:36:00 37° NW 22:42:42 10° NNE
Cosmos 2333 4.1 22:32:10 10° NNW 22:37:59 86° ENE 22:38:07 85° ESE
Cosmos 2360 Rocket 2.7 22:38:58 10° NW 22:44:23 46° WSW 22:44:24 46° WSW
Cosmos 1725 Rocket 4.4 22:49:22 48° SW 22:50:46 59° WNW 22:57:02 10° N
Cosmos 968 Rocket 3.7 22:58:03 64° NNE 22:58:03 64° NNE 23:02:24 10° NNE
Cosmos 2297 Rocket 4.0 23:02:01 18° ENE 23:02:01 18° ENE 23:04:19 10° NE
Cosmos 44 Rocket 3.7 22:56:42 10° NNW 23:00:56 61° N 23:00:56 61° N
COSMOS 2428 2.7 22:58:22 10° NNW 23:03:51 81° N 23:03:51 81° N
Lacrosse 4 Rocket 2.8 23:06:11 36° NNW 23:06:11 36° NNW 23:09:26 10° NNE
USA 267 4.4 23:01:45 10° NE 23:07:49 42° NNW 23:13:52 10° W
Cosmos 2237 Rocket 2.9 23:08:35 10° NNW 23:13:58 43° NE 23:14:16 43° ENE
BREEZE-M DEB (TANK) 4.0 23:08:31 10° WNW 23:18:41 70° W 23:18:41 70° W
Cosmos 2333 Rocket 2.6 23:16:46 10° NNW 23:21:43 53° W 23:21:43 53° W
Timation 2 Rocket 4.3 23:26:06 53° ENE 23:26:06 53° ENE 23:31:05 10° NE
Cosmos 1975 Rocket 4.3 23:27:22 10° N 23:30:20 41° N 23:30:20 41° N
Cosmos 1354 Rocket 4.4 23:33:47 63° NNW 23:33:47 63° NNW 23:38:24 10° NNE
Thor Agena Rocket 4.4 23:34:06 10° N 23:38:48 42° WNW 23:38:48 42° WNW
Cosmos 1464 Rocket 3.9 23:39:31 83° NE 23:39:31 83° NE 23:45:32 10° N
Cosmos 2227 Rocket 3.1 23:51:25 39° ENE 23:51:25 39° ENE 23:55:30 10° NE
Nadezhda 4 Rocket 3.9 23:45:49 10° N 23:52:00 78° ENE 23:52:00 78° ENE
SJ 16-02 3.8 23:55:07 14° ENE 23:55:07 14° ENE 23:56:11 10° NE
